Regional Weather Roundup
Issued by NWS

Home | Current Version | Previous Version | Graphics & Text | Print | Product List | Glossary On
Versions: 1 2 3 4 5 6 7 8 9 10 11 12 13 14 15 16 17 18 19 20 21 22 23 24 25 26 27 28 29 30 31 32 33 34 35 36 37 38 39 40 41 42 43 44 45 46 47 48 49 50
316
ASUS43 KOAX 210102
RWRNE

WEATHER ROUNDUP FOR NEBRASKA
NATIONAL WEATHER SERVICE OMAHA NE
800 PM CDT FRI OCT 20 2017

NOTES: SATELLITE DATA IS BEING USED TO AUGMENT CLOUD COVER ABOVE
       12000 FEET.
       "FAIR" INDICATES FEW OR NO CLOUDS BELOW 12,000 FEET WITH NO
       SIGNIFICANT WEATHER AND/OR OBSTRUCTIONS TO VISIBILITY.


NEZ001>004-019>022-054>056-210200-
NEBRASKA PANHANDLE

CITY           SKY/WX    TMP DP  RH WIND       PRES   REMARKS
SCOTTSBLUFF    CLEAR     59  37  44 E7        29.44S
ALLIANCE       CLOUDY    61  45  55 S14       29.46F
CHADRON        CLOUDY    71  42  35 S24G30    29.38S
GORDON         FAIR      64  48  54 S10       29.44S
KIMBALL        CLEAR     62  33  34 S12       29.52F
SIDNEY         CLEAR     58  39  49 S12       29.51F
$$

NEZ057>060-069>072-079>082-210200-
SOUTHWEST NEBRASKA

CITY           SKY/WX    TMP DP  RH WIND       PRES   REMARKS
NORTH PLATTE   CLEAR     71  51  49 S17G26    29.50R
IMPERIAL       CLEAR     65  48  54 SE10      29.49F
LEXINGTON      PTCLDY    72  53  52 S18G26    29.56R
MCCOOK         CLEAR     71  52  50 SE17      29.52S
OGALLALA       CLEAR     58  45  61 E3        29.49F
$$

NEZ005>010-023>029-035>040-094-210200-
NORTH CENTRAL NEBRASKA

CITY           SKY/WX    TMP DP  RH WIND       PRES   REMARKS
VALENTINE      CLEAR     65  50  58 S8        29.47R
AINSWORTH      CLEAR     64  54  69 S9        29.49S
BROKEN BOW     CLEAR     71  53  52 S20G29    29.54R
O`NEILL        CLOUDY    70  57  63 S22G30    29.53S
ORD            PTCLDY    70  56  61 S20G31    29.54S
THEDFORD       CLEAR     67  52  58 S9        29.51R
$$

NEZ041-046>049-061>064-073>077-083>087-210200-
SOUTH CENTRAL NEBRASKA

CITY           SKY/WX    TMP DP  RH WIND       PRES   REMARKS
GRAND ISLAND   PTCLDY    70  59  68 S25G33    29.60S
AURORA         PTCLDY    70  56  61 S22G31    29.63S
HASTINGS       CLOUDY    70  57  63 S18G33    29.62S
HEBRON         CLOUDY    73  57  57 S17G28    29.69R
HOLDREGE       MOCLDY    70  56  61 S20G29    29.59R
KEARNEY        CLEAR     71  56  58 S26G32    29.58S
YORK           PTCLDY    72  57  60 S22G29    29.65R
$$

NEZ011>018-030>034-042>045-210200-
NORTHEAST NEBRASKA

CITY           SKY/WX    TMP DP  RH WIND       PRES   REMARKS
NORFOLK        CLEAR     71  57  61 S25G35    29.58S
ALBION         PTCLDY    72  58  62 S18G29    29.60R
BLAIR          CLEAR     72  58  62 S16G26    29.70R
COLUMBUS       PTCLDY    72  58  61 S17G29    29.64R
FREMONT        CLEAR     71  57  62 SE16G24   29.68R
TEKAMAH        PTCLDY    72  57  59 S17G29    29.67F
WAYNE          CLEAR     70  59  68 S16G24    29.62S
$$

NEZ050>053-065>068-078-088>093-210200-
SOUTHEAST NEBRASKA

CITY           SKY/WX    TMP DP  RH WIND       PRES   REMARKS
LINCOLN        MOCLDY    72  57  59 S23G32    29.69R
OMAHA EPPLEY   PTCLDY    72  57  59 S25G32    29.71R
BEATRICE       MOCLDY    71  58  63 S23G31    29.71R
FALLS CITY     CLEAR     68  57  68 S13       29.78S
NEBRASKA CITY  CLEAR     69  60  71 S20G29    29.75S
PLATTSMOUTH    CLEAR     71  59  65 SE21G26   29.73S
$$

NEZ044-045-051>053-067-210200-
OMAHA AREA

CITY           SKY/WX    TMP DP  RH WIND       PRES   REMARKS
OMAHA EPPLEY   PTCLDY    72  57  59 S25G32    29.71R
BLAIR          CLEAR     72  58  62 S16G26    29.70R
FREMONT        CLEAR     71  57  62 SE16G24   29.68R
MILLARD        CLEAR     73  59  60 S15G26    29.70S
OFFUTT AFB     CLEAR     71  57  61 SE22G31   29.71S
PLATTSMOUTH    CLEAR     71  59  65 SE21G26   29.73S
WAHOO          FAIR      71  57  60 S22G29    29.68R
$$




USA.gov is the U.S. government's official web portal to all federal, state and local government web resources and services.